Tracking 19562 objects as of 25-Mar-2019
HD Live streaming from Space Station
objects crossing your sky now

FLOCK 2K 24

Track FLOCK 2K 24 now!
10-day predictions
FLOCK 2K 24 is classified as:


NORAD ID: 42857
Int'l Code: 2017-042AJ
Perigee: 449.4 km
Apogee: 463.0 km
Inclination: 97.0 °
Period: 93.6 minutes
Semi major axis: 6827 km
RCS: Unknown
Launch date: July 14, 2017
Source: United States (US)
Launch site: TYURATAM MISSILE AND SPACE COMPLEX (TTMTR)
aabbcc
Your satellite tracking list
Your tracking list is empty




NASA's NSSDC Master Catalog

Two Line Element Set (TLE):
1 42857U 17042AJ  19084.22200243  .00003852  00000-0  10162-3 0  9998
2 42857  96.9503 331.2542 0010000 159.7442 200.4203 15.38998560 94810
Source of the keplerian elements: AFSPC